Lid_Strength_Index
9 9 9 9 9 9 8 9 9 9 9 9 9 9 9 9 9 9 9 9 9 9 9 8 8 8 8 8 8 8 8 7
9 9 9 9 9 9 9 9 9 9 9 10 10 10 10 10 10 10 10 10 10 10 10 10 10 10 10 10 10 10 9 9
9 9 9 9 9 10 10 10 10 9 10 10 10 11 11 11 11 11 11 11 11 11 11 11 11 11 11 11 11 11 11 10
9 9 9 10 10 11 11 11 10 10 11 11 11 12 12 11 11 12 12 12 12 12 12 12 12 12 11 11 11 11 11 11
9 10 10 11 11 12 11 11 11 11 12 12 12 12 12 12 13 13 13 13 13 13 13 13 13 12 13 13 12 12 11 11
9 10 11 12 12 12 12 12 12 12 12 12 12 13 13 14 15 15 15 14 15 15 14 14 13 13 13 13 13 13 13 12
10 11 11 12 13 12 13 12 12 13 13 13 14 15 15 15 15 15 15 15 15 15 15 15 13 11 11 11 13 13 14 14
10 10 11 11 11 12 12 12 13 14 15 15 16 16 16 16 16 16 16 16 16 16 16 15 15 12 11 11 13 13 13 12
10 11 11 11 12 12 12 13 14 15 16 16 16 17 16 17 17 17 16 17 17 16 16 16 14 12 11 12 13 13 13 12
10 10 11 12 13 14 15 15 15 16 16 16 17 18 18 19 18 17 18 17 18 16 17 17 14 12 12 12 12 12 11 11
11 12 13 13 14 15 15 16 16 16 16 16 17 19 20 18 19 18 18 15 15 14 13 13 13 12 11 10 11 12 11 11
12 13 14 14 15 15 16 16 16 17 17 18 18 20 20 19 18 19 19 17 19 16 15 13 13 14 9 9 10 11 11 11
14 15 15 15 15 16 16 17 18 19 19 21 23 20 19 23 22 22 21 21 19 18 16 15 14 10 9 9 9 9 11 11
15 16 16 16 15 17 18 18 20 22 25 25 24 22 22 24 23 22 22 21 18 17 15 13 12 10 9 9 9 9 10 10
15 16 17 17 17 18 20 21 25 26 25 23 24 24 23 20 19 23 22 19 18 16 15 14 13 11 11 10 10 10 10 9
15 16 17 18 20 21 22 23 23 25 23 24 22 24 22 20 20 19 18 18 17 14 13 13 13 12 10 10 10 10 8 9
17 17 19 21 22 24 25 25 27 25 23 23 23 23 21 20 19 15 13 12 12 11 12 12 10 10 9 8 9 8 7 13
18 20 22 24 25 27 27 27 27 26 25 24 22 23 23 23 21 20 17 14 13 12 12 11 10 10 8 8 8 8 7 10
21 22 23 24 25 27 28 28 30 30 25 27 26 26 25 24 24 22 21 20 18 15 13 11 10 9 9 8 9 11 12 11
24 25 26 27 28 29 30 29 30 28 27 27 27 26 25 24 22 21 20 19 18 17 15 13 10 9 9 9 13 13 14 13